COSMOS 1275 DEB

Satellite information

Favourite Embed

Satellite Type and Status

DEBRISIN ORBIT

Key statistics

Satellite COSMOS 1275 DEB at a glance.

Uptime

16215

Days in orbit

Revolutions

≈ 15.2

Per day

Orbit

LEO

Low Earth Orbit

Inclination

82.9

Latest

Satellite identification and parameters

Extended collection of information and parameters for COSMOS 1275 DEB.

Object identification

Identified? True

Debris? True

Object name: COSMOS 1275 DEB

International designator: 1981-053GH

Object number (NORAD): 13487

Object ID (CCSDS): 13487

Country: COMMONWEALTH OF INDEPENDENT STATES (CIS)

Current information (Y/N): Y

RCS size: SMALL

Orbital parameters

Period: 94.935 minutes

Inclination: 82.9226 deg

SMA: 6893.574 km

Apoapsis: 529.494 km

Periapsis: 501.385 km

RAAN: 347.5035 deg

Eccentricy: 0.00203883

Argument of periapsis: 265.4944 deg

Mean anomaly: 254.0506 deg

Mean motion: 15.16827041 rev/day

Mean motion (dot): 0.00222277 rev/day2

B* drag term: 0.010932365 1/REarth

Two-line elements (TLE)

Creation date: Oct. 26, 2025, 2:54 a.m.

Reference frame: TEME

Reference center: EARTH

Epoch: Oct. 25, 2025, 2:05 p.m. UTC

TLE line 0: 0 COSMOS 1275 DEB

TLE line 1: 1 13487U 81053GH 25298.58684537 .00222277 00000-0 10932-1 0 9990

TLE line 2: 2 13487 82.9226 347.5035 0020388 265.4944 254.0506 15.16827041214774

Live tracking on map

Real-time ground track for satellite COSMOS 1275 DEB.

In-orbit conjunctions

A list of the most updated potential collisions computed for object COSMOS 1275 DEB.

Target Orbit TCA Probability of collision Miss distance Type
PSLV R/B SSO 2025-10-01 09:38:29 0.0005239634 53.0 (m) ROCKET BODY
DELTA 1 R/B SSO 2024-12-11 14:41:25 0.0002177296 344.0 (m) ROCKET BODY

Associated space launch

Navigation satellite providing location information for the Tsiklon-B navigation system

COSMOS 1275 DEB was lifted into orbit during the mission ‘Kosmos-3M | Parus 27’, on board a Kosmos-3M space rocket.

The launch took place on June 4, 1981, 3:41 p.m. from 132/2.

For more information about the launch, click the button.

Launch to space Kosmos-3M | Parus 27
Kosmos-3M | Parus 27

Agency: N/A

Status: Launch Successful

Launch date: June 4, 1981, 3:41 p.m. UTC

Rocket: Kosmos-3M

Launch pad: 132/2

Location: Plesetsk Cosmodrome, Russian Federation

...

Latest news about this satellite

There are no fresh news available about this satellite. Check back as we update our databases every day.


Newsletter sign-up

Weekly statistics, charts and insights to help you stay on top of the space industry.